Temperature
17 17 17 17 17 17 17 17 17 17 17 17 17 17 17 16 16 16 16 16 16 16 16 16 16 16 16 15 15 15 15 15 15 15 15 15 15 15 15 15 15 15 15
17 17 17 17 17 17 17 17 17 17 17 17 17 17 16 16 16 16 16 16 16 16 16 15 15 15 15 15 15 15 15 15 15 15 15 15 15 15 15 15 15 14 14
17 17 17 17 17 17 17 17 17 17 17 17 17 16 16 16 16 16 16 16 15 15 15 15 15 15 15 15 15 15 15 15 15 15 14 14 14 14 14 14 14 14 14
17 17 17 17 17 17 17 17 17 17 17 17 17 16 16 16 16 16 16 16 15 15 15 15 15 15 15 15 15 15 15 15 15 14 14 13 14 14 14 14 14 14 14
16 16 17 17 17 17 17 17 17 17 17 17 16 16 16 16 16 15 15 15 15 15 15 15 15 15 15 15 15 15 15 15 14 14 13 13 13 13 14 14 14 14 14
16 16 16 17 17 17 17 16 16 16 16 16 16 16 16 16 16 15 15 15 15 15 15 15 15 15 14 14 14 14 14 14 14 13 13 13 13 13 13 13 13 13 13
16 15 16 16 16 16 16 16 16 16 16 16 16 16 16 16 16 15 15 15 15 15 15 15 15 14 14 14 14 14 14 14 13 13 13 13 13 13 13 13 13 13 13
15 15 16 16 16 16 16 16 16 16 16 16 16 16 16 15 15 15 15 15 15 15 15 15 14 14 14 14 14 14 14 14 13 13 13 13 13 13 13 13 13 13 13
15 15 15 15 16 16 16 16 16 16 16 16 16 16 16 15 15 15 15 15 15 15 15 14 14 14 14 14 14 14 14 13 13 12 12 12 13 13 13 13 12 12 12
15 15 15 15 15 15 15 16 16 16 15 16 16 16 15 15 15 15 15 14 14 14 14 14 14 14 14 14 14 13 13 13 12 12 12 12 12 12 12 12 12 12 12
14 15 15 15 15 15 15 15 15 15 15 15 15 15 15 14 14 14 14 14 14 14 14 14 14 14 14 13 13 13 13 12 12 12 12 12 12 12 12 12 12 12 12
14 14 14 14 14 14 15 15 15 15 15 15 15 15 14 14 14 14 14 14 14 14 14 14 14 13 13 13 13 13 12 12 12 12 12 12 12 12 12 12 12 12 11
14 14 14 14 14 14 14 14 14 14 14 14 14 14 14 14 14 14 14 14 14 14 13 13 13 13 13 13 12 12 12 12 11 11 11 12 11 11 11 11 11 11 11
14 14 14 14 14 14 14 14 14 14 14 14 14 14 14 14 14 14 13 13 13 13 13 13 13 13 12 12 12 12 12 11 11 11 11 11 11 11 11 11 11 11 11
13 14 14 14 14 14 14 14 14 14 14 14 14 14 14 14 14 14 13 13 13 13 13 13 12 12 12 12 12 12 11 11 11 11 11 11 11 11 11 11 11 11 11
13 13 14 14 14 14 14 14 14 14 14 14 14 14 14 14 14 14 13 13 13 13 13 13 12 12 12 12 12 11 11 11 11 11 11 11 11 11 11 11 10 10 10
13 13 13 13 14 14 14 14 14 14 14 14 14 14 14 14 14 14 13 13 13 13 12 12 12 12 12 12 11 11 11 11 11 10 10 10 10 10 10 10 10 10 10
13 13 13 13 13 13 13 13 13 13 14 14 14 14 14 13 13 13 13 13 13 12 12 12 12 12 12 11 11 11 11 11 11 10 10 10 10 10 10 10 10 10 10
12 13 13 13 13 13 13 13 13 13 13 13 13 13 13 13 13 13 13 13 12 12 12 12 12 12 11 11 11 11 11 11 10 10 10 10 10 10 10 10 10 10 10
12 12 13 13 13 13 13 13 13 13 13 13 13 13 13 13 13 13 13 12 12 12 12 12 11 11 11 11 11 11 10 10 10 10 10 10 10 10 10 10 9 9 9
12 12 12 13 13 13 13 13 13 13 13 13 13 13 13 13 13 12 12 12 12 12 12 12 11 11 11 11 10 10 10 10 10 10 10 10 10 10 10 9 9 9 9
12 12 12 12 12 12 13 13 13 13 13 13 13 12 12 12 12 12 12 12 12 12 11 11 11 11 11 10 10 9 9 9 10 10 10 10 10 9 9 9 9 9 9
11 12 12 12 12 12 12 12 12 12 12 12 12 12 12 12 12 12 12 12 12 11 11 11 11 11 11 10 10 9 9 10 9 9 9 9 9 9 9 9 9 9 9
11 11 11 12 12 12 12 12 12 12 12 12 12 12 12 12 12 12 12 11 11 11 11 11 11 10 10 10 10 9 9 9 9 8 9 9 9 9 8 8 8 8 8
10 11 11 11 11 11 11 12 12 11 12 12 12 12 12 12 11 11 11 11 11 11 11 11 11 10 10 10 10 9 9 9 9 8 8 8 8 8 8 8 8 8 8
9 10 11 11 11 11 11 11 11 11 11 11 11 11 11 11 11 11 11 11 11 11 11 11 10 10 10 10 9 9 9 8 8 8 7 7 7 7 8 7 7 7 7
Wind_Speed
10 14 17 16 16 16 16 16 16 16 16 16 15 15 15 15 15 15 15 15 15 15 15 16 16 16 16 16 17 17 17 17 17 17 17 17 17 16 16 14 13 15 16
12 16 18 17 16 16 16 16 16 16 16 16 15 15 15 15 15 15 15 15 15 15 15 16 16 16 16 16 16 17 17 17 16 15 15 16 17 16 16 16 15 15 15
14 17 19 17 16 17 16 16 16 16 16 16 15 15 15 15 14 14 14 15 15 15 15 15 15 16 16 15 16 16 16 15 14 12 11 13 15 16 16 16 16 16 16
14 16 17 18 16 17 17 16 16 15 15 15 15 15 15 14 14 14 14 15 15 14 14 14 15 15 15 15 15 15 15 14 12 8 11 12 13 15 15 16 16 16 16
13 15 17 17 17 17 17 17 16 15 15 15 15 15 15 14 14 14 14 14 14 14 14 14 14 14 14 14 14 14 14 13 10 10 12 12 13 14 15 15 15 15 15
13 15 17 17 17 18 17 16 16 15 15 15 15 15 14 14 14 14 14 14 14 14 14 14 13 13 14 13 13 13 12 10 9 11 11 11 12 13 13 14 14 14 14
12 14 17 17 17 17 17 16 16 15 15 15 15 15 14 14 14 14 14 14 14 14 14 14 13 13 13 13 13 13 11 8 9 10 10 11 12 13 13 13 13 13 13
11 12 16 17 17 17 17 17 16 15 15 15 15 14 14 14 14 14 14 14 13 13 13 13 13 13 13 13 13 12 10 7 9 10 10 11 12 12 11 12 12 12 12
11 11 13 16 16 17 17 17 16 15 15 15 14 14 14 14 14 14 13 13 12 13 13 13 13 12 13 12 12 12 10 7 8 9 9 10 11 11 11 11 11 11 11
10 10 11 13 15 15 16 16 16 15 14 14 14 14 14 13 13 13 13 13 12 12 12 13 13 12 12 12 12 11 9 6 8 8 8 10 10 10 11 11 11 10 10
9 9 10 11 12 13 14 15 15 14 14 14 13 14 13 12 12 11 12 12 12 12 12 12 12 13 12 12 11 9 6 6 7 7 8 9 9 9 10 10 10 9 9
10 10 9 10 11 11 11 13 12 12 13 12 12 13 10 10 9 10 13 12 13 13 12 11 11 10 8 8 8 6 5 6 6 7 8 9 8 9 8 8 8 8 8
10 10 9 9 10 10 9 10 9 9 10 10 11 11 9 9 9 9 9 10 10 10 9 9 8 6 6 6 5 5 5 5 5 6 8 8 7 7 7 7 7 6 6
9 9 10 10 9 10 10 9 9 8 8 8 10 11 9 7 7 7 6 7 7 6 7 6 5 6 6 6 5 5 5 5 5 5 7 8 7 6 6 6 5 5 5
9 9 10 10 10 9 9 8 8 8 9 9 9 10 9 7 6 6 6 6 6 6 6 5 6 6 6 5 5 4 4 5 4 4 5 7 6 5 5 5 5 4 4
9 9 9 10 10 10 9 8 8 9 9 9 8 9 9 8 7 6 6 5 5 6 6 5 5 5 4 4 4 4 3 3 3 3 3 5 5 5 4 4 4 4 4
10 9 9 10 10 10 9 9 8 8 9 8 8 9 9 8 8 7 6 5 5 6 6 6 6 5 4 4 3 3 3 2 2 2 2 2 2 4 3 3 3 4 4
9 9 9 8 10 10 9 9 8 8 8 8 9 9 10 9 9 8 6 5 6 6 6 5 5 4 4 3 3 2 2 2 2 1 1 1 1 1 2 2 3 4 4
9 9 9 9 10 10 9 8 8 8 8 8 9 9 10 10 9 8 6 6 8 6 5 5 4 4 4 3 2 1 1 2 2 2 2 1 1 1 0 1 2 3 4
7 8 8 9 10 9 8 7 6 7 7 8 8 9 10 10 10 9 7 7 8 6 5 5 5 4 4 3 2 1 1 2 2 2 2 2 2 2 2 2 2 2 2
5 6 7 8 9 8 7 8 7 8 7 7 7 9 10 10 10 9 7 7 7 6 7 7 6 5 4 4 2 1 2 2 3 3 3 2 2 3 2 2 3 3 3
4 5 6 7 8 9 8 8 7 7 6 6 6 8 10 10 10 9 9 7 7 6 7 7 6 4 3 4 3 2 2 3 3 3 3 3 3 2 2 3 3 4 4
4 5 5 7 7 8 9 7 6 5 5 5 7 6 7 9 10 10 9 8 8 7 7 8 8 7 5 4 4 3 3 3 2 3 3 3 3 2 2 3 4 4 5
5 5 5 6 7 7 8 9 11 9 8 7 7 7 8 9 9 9 9 9 8 7 8 8 8 6 6 5 4 3 3 2 3 2 3 3 3 3 3 3 4 4 5
5 4 5 5 6 6 8 9 10 10 8 7 7 8 8 8 8 9 9 8 8 7 8 8 7 7 6 6 5 3 3 3 4 4 4 3 3 3 4 4 4 4 5
4 4 4 5 5 6 7 8 9 10 9 9 8 8 7 6 7 8 8 8 8 7 7 7 7 7 7 7 5 4 4 3 3 4 5 5 5 4 4 4 4 4 5
Wind_Direction
158 155 149 149 146 141 139 136 133 130 128 128 125 123 120 117 114 113 111 108 105 102 100 100 98 97 96 93 91 89 88 86 84 82 81 80 80 80 78 74 76 75 71
153 154 149 150 148 143 140 137 134 132 131 129 127 125 122 118 116 115 113 110 108 104 101 100 99 98 97 95 92 90 89 87 84 82 86 83 79 77 75 70 66 74 72
152 153 153 150 148 145 141 137 135 134 132 130 128 126 124 122 119 118 116 112 109 106 103 101 101 99 97 96 93 91 90 89 86 85 88 84 82 78 76 74 73 73 72
152 154 156 148 149 147 143 139 137 135 135 133 130 128 126 125 123 121 117 113 109 106 105 104 103 101 98 97 96 93 92 89 84 83 80 78 80 78 76 74 74 72 71
153 155 150 149 149 147 143 142 139 137 136 135 132 131 130 128 124 121 117 113 111 108 107 105 103 102 99 99 98 96 94 91 86 80 79 78 78 76 75 73 73 72 71
154 154 150 150 149 146 144 142 140 140 138 136 134 132 130 128 125 121 118 115 112 110 108 106 104 102 101 101 100 98 96 94 95 83 79 77 77 77 76 75 74 72 70
154 154 152 151 150 148 145 143 142 141 139 137 134 131 130 129 126 121 118 116 114 111 110 109 107 105 104 102 101 98 95 87 86 84 80 78 76 75 76 75 74 73 69
154 153 153 152 152 149 147 145 144 142 141 138 136 133 130 127 126 125 122 118 116 114 114 113 112 109 107 104 101 98 95 92 92 86 82 79 76 75 77 77 77 75 70
155 155 155 159 157 151 149 147 145 143 141 139 136 133 130 129 127 123 121 119 118 117 115 113 113 111 109 105 102 97 90 84 89 86 82 78 77 77 76 77 78 74 69
159 160 159 161 161 160 155 149 145 143 141 137 133 130 128 128 128 126 125 119 118 118 116 114 111 110 108 106 105 101 99 98 89 89 84 82 79 79 77 74 73 71 69
164 166 166 167 164 162 160 154 151 145 142 142 138 134 140 141 137 135 124 121 120 118 116 114 112 111 110 107 106 106 107 93 90 82 81 80 81 80 76 72 69 70 68
177 175 174 171 168 164 160 161 161 159 158 160 156 154 154 147 137 129 123 122 120 118 116 114 116 122 126 119 115 119 104 98 90 88 82 75 77 77 75 69 65 67 66
185 181 179 177 172 170 166 167 164 164 164 166 163 162 155 146 139 136 137 134 132 133 128 126 133 132 127 120 119 112 104 95 92 92 85 73 70 71 71 66 62 63 63
193 189 184 181 179 177 174 173 170 168 169 169 168 165 159 154 152 148 150 147 148 146 141 143 135 131 127 126 123 117 114 106 100 95 83 75 68 64 63 60 55 51 55
202 196 193 186 184 182 180 176 176 174 173 171 169 170 167 162 157 155 155 153 152 148 148 144 145 138 133 127 122 121 116 113 110 107 96 80 70 60 53 50 44 38 37
210 203 197 194 191 186 186 183 180 177 174 172 173 174 171 167 162 162 159 157 155 154 152 150 146 140 137 135 130 127 123 122 120 119 112 95 78 59 46 39 31 25 13
213 208 202 199 196 193 192 189 182 181 177 174 174 176 175 172 169 167 164 160 159 157 155 150 146 142 139 139 144 139 130 129 133 135 129 123 102 80 54 30 16 8 357
213 211 206 201 199 198 195 192 186 184 180 177 176 178 178 176 175 172 168 165 162 162 161 157 156 152 151 155 153 149 146 145 156 149 139 143 128 87 69 44 11 357 346
215 210 207 202 200 198 194 192 187 182 183 182 180 181 179 177 179 180 174 168 168 168 168 166 166 163 160 158 153 152 170 174 175 180 186 191 197 215 305 60 23 353 344
219 214 211 205 201 194 188 188 185 183 186 186 186 185 183 180 180 183 177 175 175 173 173 174 167 164 164 159 149 157 200 213 210 211 216 217 213 221 251 282 296 307 312
216 216 214 206 199 191 189 190 189 188 188 188 189 187 187 185 184 185 180 178 182 183 182 178 170 163 167 165 175 197 215 228 231 227 227 228 221 224 243 266 282 291 291
220 221 216 206 201 198 196 195 194 188 187 187 185 188 188 187 188 189 188 185 186 185 184 181 176 177 181 196 204 213 227 223 220 232 233 236 243 236 251 267 278 284 288
231 226 222 209 201 200 195 186 177 177 179 186 188 188 188 188 189 190 192 189 188 189 189 189 189 194 192 199 218 229 236 239 231 210 227 235 237 250 263 277 278 279 281
242 235 229 212 201 200 192 191 189 191 194 200 195 190 187 187 188 188 190 190 189 191 193 193 195 198 195 197 205 233 254 263 245 240 221 228 242 257 264 273 279 281 284
245 236 230 210 200 201 199 198 200 202 201 194 188 185 184 183 185 187 189 189 190 191 194 193 196 199 202 205 204 206 218 232 244 249 255 249 246 247 259 268 273 281 286
253 241 228 208 202 201 201 201 202 201 197 189 190 188 187 185 184 188 190 191 191 190 194 196 198 201 204 207 209 209 213 219 225 235 251 263 269 263 262 257 263 272 280
Height
1522 1524 1526 1529 1531 1532 1534 1535 1536 1537 1538 1539 1540 1541 1541 1542 1543 1543 1544 1544 1545 1545 1545 1545 1546 1546 1546 1546 1546 1546 1546 1546 1546 1546 1546 1546 1546 1546 1545 1545 1546 1545 1544
1521 1524 1526 1529 1531 1533 1535 1536 1537 1538 1539 1540 1541 1542 1542 1543 1544 1545 1545 1546 1546 1547 1547 1547 1547 1547 1548 1548 1548 1548 1548 1548 1548 1548 1548 1548 1548 1548 1547 1547 1547 1546 1546
1521 1524 1527 1530 1532 1534 1535 1537 1538 1539 1540 1541 1542 1543 1544 1544 1545 1546 1546 1547 1547 1548 1548 1548 1549 1549 1549 1549 1550 1550 1550 1550 1550 1550 1550 1550 1550 1549 1549 1548 1548 1548 1547
1522 1525 1527 1530 1532 1534 1536 1538 1539 1540 1541 1542 1543 1544 1545 1545 1546 1547 1547 1548 1549 1549 1550 1550 1550 1551 1551 1551 1551 1551 1552 1552 1552 1552 1553 1552 1552 1551 1551 1550 1550 1549 1549
1523 1526 1527 1530 1533 1535 1537 1538 1540 1541 1542 1543 1544 1545 1546 1546 1547 1548 1548 1549 1550 1550 1551 1551 1552 1552 1552 1553 1553 1553 1553 1553 1553 1554 1554 1553 1553 1552 1552 1551 1551 1550 1550
1524 1526 1528 1531 1533 1535 1537 1539 1540 1542 1543 1544 1545 1546 1546 1547 1548 1549 1550 1550 1551 1551 1552 1552 1553 1553 1554 1554 1554 1554 1554 1555 1555 1555 1555 1555 1554 1554 1553 1553 1552 1551 1551
1524 1527 1528 1531 1534 1536 1538 1539 1541 1542 1544 1544 1545 1546 1547 1548 1549 1550 1551 1551 1552 1552 1553 1553 1554 1554 1555 1555 1555 1555 1556 1556 1556 1556 1556 1556 1555 1555 1554 1554 1553 1552 1552
1524 1527 1529 1531 1534 1536 1538 1540 1541 1543 1544 1545 1546 1547 1548 1549 1550 1551 1552 1552 1553 1553 1554 1554 1555 1555 1556 1556 1556 1556 1557 1557 1557 1557 1557 1557 1556 1556 1555 1554 1554 1553 1552
1525 1527 1529 1531 1534 1536 1538 1540 1542 1543 1544 1546 1547 1548 1549 1550 1551 1552 1552 1553 1554 1554 1555 1555 1556 1556 1556 1557 1557 1557 1558 1558 1559 1558 1558 1557 1557 1556 1556 1555 1555 1554 1553
1525 1527 1529 1531 1534 1536 1538 1540 1541 1543 1545 1546 1547 1548 1549 1550 1551 1552 1553 1554 1554 1555 1555 1556 1556 1557 1557 1558 1558 1558 1558 1559 1559 1559 1559 1558 1557 1557 1556 1556 1555 1554 1554
1524 1526 1528 1531 1533 1535 1537 1539 1541 1543 1545 1546 1548 1549 1550 1551 1552 1553 1553 1554 1555 1555 1556 1557 1557 1558 1558 1558 1559 1559 1559 1560 1560 1559 1559 1558 1558 1557 1557 1556 1555 1555 1554
1523 1525 1527 1529 1532 1534 1536 1538 1540 1542 1544 1546 1548 1549 1550 1551 1552 1553 1553 1554 1555 1556 1556 1557 1557 1558 1558 1559 1559 1559 1560 1560 1560 1560 1559 1559 1558 1558 1557 1556 1556 1555 1554
1521 1523 1525 1527 1530 1532 1534 1537 1539 1541 1543 1545 1547 1548 1549 1550 1551 1552 1553 1554 1555 1556 1556 1557 1557 1558 1559 1559 1559 1559 1560 1560 1560 1560 1559 1559 1558 1558 1557 1556 1556 1555 1554
1520 1521 1523 1525 1528 1530 1533 1535 1537 1540 1542 1543 1545 1547 1548 1549 1550 1552 1553 1554 1555 1555 1556 1557 1557 1558 1558 1559 1559 1560 1560 1560 1560 1559 1559 1558 1558 1558 1557 1556 1555 1555 1554
1518 1519 1521 1524 1526 1528 1531 1533 1535 1538 1540 1542 1543 1545 1547 1548 1549 1551 1552 1553 1554 1554 1555 1556 1557 1557 1558 1558 1559 1559 1559 1559 1559 1559 1559 1558 1557 1557 1556 1556 1555 1554 1553
1515 1517 1519 1521 1524 1526 1528 1531 1533 1536 1538 1540 1541 1543 1545 1547 1548 1549 1550 1552 1553 1553 1554 1555 1556 1556 1557 1558 1558 1558 1558 1559 1558 1558 1558 1557 1557 1556 1555 1555 1554 1553 1552
1512 1514 1516 1519 1521 1524 1526 1528 1531 1534 1536 1538 1540 1541 1543 1545 1546 1548 1549 1550 1551 1552 1553 1554 1555 1555 1556 1556 1557 1557 1557 1557 1557 1557 1557 1556 1556 1555 1554 1554 1553 1552 1551
1510 1511 1514 1516 1518 1521 1523 1526 1529 1531 1533 1535 1538 1539 1541 1543 1545 1546 1547 1548 1550 1551 1552 1553 1553 1554 1555 1555 1556 1556 1556 1556 1556 1556 1556 1555 1554 1554 1553 1552 1551 1550 1549
1507 1508 1510 1512 1515 1518 1520 1523 1526 1528 1531 1533 1535 1537 1539 1541 1543 1544 1545 1546 1548 1549 1550 1551 1552 1553 1553 1554 1554 1554 1554 1554 1554 1554 1554 1553 1553 1552 1551 1550 1549 1548 1547
1503 1505 1507 1509 1511 1514 1517 1520 1522 1525 1528 1530 1532 1534 1536 1538 1540 1542 1543 1544 1546 1547 1548 1549 1550 1551 1552 1552 1552 1552 1552 1552 1552 1552 1551 1551 1550 1550 1549 1548 1547 1546 1545
1500 1501 1503 1505 1507 1510 1513 1515 1518 1521 1524 1526 1529 1531 1533 1535 1537 1539 1540 1542 1543 1545 1546 1547 1548 1549 1549 1550 1551 1551 1550 1550 1550 1549 1549 1549 1548 1547 1547 1546 1545 1543 1542
1496 1498 1499 1501 1504 1506 1509 1512 1515 1517 1520 1523 1526 1528 1530 1532 1534 1536 1538 1539 1540 1542 1543 1544 1545 1546 1547 1548 1549 1549 1549 1550 1547 1547 1546 1546 1546 1545 1544 1543 1542 1540 1539
1493 1494 1496 1498 1500 1502 1505 1508 1511 1513 1516 1519 1521 1524 1526 1528 1531 1533 1535 1536 1537 1539 1540 1541 1543 1543 1544 1545 1546 1547 1547 1547 1546 1545 1544 1543 1543 1542 1541 1540 1539 1538 1536
1489 1491 1492 1494 1496 1498 1501 1503 1506 1508 1510 1513 1517 1520 1522 1525 1527 1529 1531 1533 1534 1535 1537 1538 1539 1540 1541 1541 1542 1543 1544 1543 1544 1543 1542 1541 1540 1539 1538 1537 1536 1534 1533
1486 1487 1489 1491 1492 1495 1497 1499 1502 1505 1507 1511 1514 1516 1518 1520 1523 1525 1527 1528 1530 1531 1533 1534 1535 1537 1537 1538 1538 1539 1539 1539 1540 1540 1539 1538 1537 1536 1535 1534 1532 1531 1529
1483 1484 1485 1487 1488 1490 1492 1495 1497 1500 1503 1506 1509 1511 1513 1516 1518 1520 1522 1524 1526 1527 1529 1530 1531 1532 1533 1534 1535 1535 1536 1536 1536 1536 1535 1534 1533 1532 1531 1530 1528 1527 1525